[[{"header":{"parameterUnit":"m.s-1","parameterCategory":1,"la1":30.2991,"la2":30.254,"lo1":-89.0895,"lo2":-89.0444,"dy":0.0017,"dx":0.0017,"nx":28,"ny":28,"refTime":"2024-03-18T21:00:00:Z","depth":0,"parameterNumber":2,"parameterNumberName":"U-component_of_WINDS"},"data":[0,0,0,0,0,0,0,0,0,0,0,0,0,0,0,0,0,0,0,0,0,0,0,0,0,0,0,0,0,0,0,0,0,0,0,0,0,0,0,0,0,0,0,0,0,0,0,0,0,0,0,0,0,0,0,0,0,0,2.3718,2.3718,0,2.3731,2.3731,2.3731,2.3731,2.373,2.373,2.373,2.3741,2.3742,2.3742,0,0,0,0,0,0,0,0,0,0,0,0,0,2.3691,2.3692,2.3718,2.3718,2.3718,2.3731,2.3731,2.3732,2.3731,2.373,2.373,2.373,2.3741,2.3742,2.3742,0,0,0,0,0,0,0,0,0,0,0,0,0,2.3703,2.3692,2.3718,2.3719,2.372,2.3731,2.3731,2.3732,2.3731,2.373,2.373,2.373,2.3741,2.3742,2.3742,2.3752,0,0,2.3744,2.3745,0,0,0,0,0,0,0,0,2.3703,2.3704,2.3719,2.3719,2.372,2.3729,2.3726,2.3738,2.3731,2.3726,2.373,2.373,2.3737,2.3738,2.3741,2.3753,2.3753,2.3745,2.3745,2.3745,2.3745,0,0,0,0,0,0,0,2.3702,2.3704,2.3723,2.3719,2.372,2.3719,2.3721,2.3728,2.3733,2.3727,2.3727,2.3729,2.3737,2.3741,2.3742,2.3753,2.3745,2.3745,2.3746,2.3746,2.3775,2.3776,0,0,0,0,0,0,2.3701,2.3703,2.3723,2.3723,2.371,2.372,2.3722,2.3726,2.3733,2.3734,2.3729,2.3728,2.374,2.3741,2.3742,2.3755,2.3745,2.3746,2.3746,2.3775,2.3776,2.3776,0,0,0,0,0,0,2.37,2.3703,2.3722,2.3713,2.3716,2.3721,2.3726,2.3727,2.373,2.3735,2.3735,2.3731,2.3739,2.3741,2.375,2.3755,2.3746,2.3747,2.3775,2.3775,2.3776,2.378,0,0,0,0,0,0,2.37,2.3702,2.3706,2.3713,2.3716,2.373,2.3726,2.3727,2.3731,2.3731,2.3737,2.3738,2.3739,2.3749,2.3751,2.3756,2.3747,2.3774,2.3775,2.3776,2.378,2.3781,2.3782,0,0,0,0,0,2.3699,2.3706,2.3706,2.3709,2.3721,2.3731,2.3732,2.3734,2.3732,2.3736,2.3739,2.3738,2.3755,2.375,2.3752,2.3757,2.3774,2.3775,2.3775,2.3779,2.3781,2.3782,0,0,0,0,0,0,2.3698,2.3707,2.3707,2.3718,2.3724,2.3731,2.3735,2.3736,2.3742,2.3741,2.3743,2.3744,2.3754,2.3757,2.3752,2.3768,2.3764,2.3765,2.3766,2.3767,2.3769,2.3767,2.3748,0,0,0,0,0,2.3699,2.3707,2.3714,2.3722,2.3725,2.373,2.3734,2.3736,2.3742,2.3744,2.3748,2.3753,2.376,2.3764,2.377,2.3781,2.3782,2.3785,2.3786,2.3787,2.3788,2.3795,2.3797,2.3779,2.3779,2.3779,0,0,2.3701,2.3707,2.3712,2.3722,2.3727,2.3735,2.3732,2.374,2.3745,2.3745,2.3754,2.3757,2.3763,2.3774,2.3778,2.3776,2.3794,2.3788,2.3789,2.3789,2.3796,2.3798,2.3799,2.3779,2.3779,2.3779,0,0,2.3709,2.3714,2.3722,2.3728,2.3736,2.3739,2.3741,2.3749,2.3751,2.3761,2.3761,2.3768,2.3779,2.3784,2.3788,2.38,2.3799,2.3802,2.3808,2.3815,2.3816,2.3817,2.3822,2.3824,2.3803,2.3803,2.3803,0,2.3711,2.3722,2.3726,2.3735,2.374,2.3741,2.375,2.3755,2.3764,2.3767,2.3765,2.378,2.3784,2.3796,2.38,2.3803,2.3805,2.3801,2.3816,2.3817,2.3818,2.3823,2.3824,2.3804,2.3804,2.3804,2.3804,0,2.3724,2.3732,2.3738,2.3748,2.3754,2.3762,2.3768,2.3773,2.3775,2.3778,2.3789,2.3795,2.3803,2.3806,2.3807,2.3818,2.3817,2.3815,2.3811,2.382,2.3825,2.3826,2.3804,2.3804,2.3804,2.3804,0,0,2.373,2.3744,2.3746,2.3752,2.3762,2.3768,2.3777,2.3786,2.3791,2.3798,2.3805,2.3816,2.3815,2.382,2.3821,2.3827,2.3838,2.3825,2.3825,2.3827,2.3852,2.3853,2.3854,2.3838,2.3838,2.3838,2.3851,0,2.3739,2.3755,2.376,2.3774,2.3782,2.3785,2.3793,2.38,2.3804,2.3811,2.3816,2.3824,2.3822,2.3825,2.3831,2.3835,2.3843,2.3834,2.3844,2.3845,2.3842,2.3857,2.3857,2.3869,2.3853,2.3853,2.3853,0,2.3751,2.376,2.3775,2.3785,2.3789,2.3796,2.3806,2.3813,2.3821,2.3824,2.383,2.3832,2.3842,2.3838,2.3851,2.3845,2.385,2.3853,2.3854,2.3854,2.3849,2.3857,2.3873,2.3874,2.3856,2.3856,2.3856,0,2.3754,2.377,2.3781,2.3786,2.3798,2.3803,2.3808,2.3817,2.3822,2.3831,2.3835,2.3844,2.3849,2.3856,2.386,2.3857,2.3873,2.3869,2.3876,2.3876,2.3878,2.3878,2.3894,2.3882,2.3882,2.3882,2.3882,0,2.3764,2.3773,2.3783,2.379,2.38,2.3806,2.3816,2.3822,2.383,2.3837,2.384,2.3848,2.3853,2.3862,2.3865,2.3876,2.3878,2.388,2.3881,2.388,2.388,2.3882,2.3882,2.3882,2.3882,2.3882,2.3882,0,2.3769,2.3776,2.3788,2.38,2.3803,2.381,2.382,2.3827,2.3833,2.3843,2.3845,2.3853,2.3863,2.3869,2.3881,2.3883,2.3896,2.3896,2.3893,2.3893,2.3899,2.3899,2.3918,2.3921,2.3907,2.3907,2.3907,0,2.3774,2.3781,2.3794,2.38,2.3806,2.3816,2.3822,2.3829,2.3835,2.3847,2.3852,2.3863,2.3871,2.3887,2.3894,2.3904,2.3904,2.391,2.3905,2.3904,2.3904,2.3903,2.3904,2.3911,2.3911,2.3911,2.3911,0,2.3782,2.3786,2.3796,2.3807,2.3815,2.3824,2.3833,2.3838,2.3846,2.3853,2.3864,2.3871,2.3885,2.3895,2.3906,2.3911,2.3912,2.3913,2.3915,2.3913,2.3911,2.3913,2.3895,2.3912,2.3912,2.3912,2.3912,2.3912,2.3787,2.3795,2.3805,2.3816,2.3824,2.3833,2.3841,2.3848,2.3857,2.3869,2.3873,2.3884,2.3894,2.3909,2.3914,2.3924,2.3922,2.3925,2.3926,2.3926,2.3927,2.3911,2.3925,2.3925,2.3925,2.3925,2.3925,0,2.3796,2.3804,2.3814,2.3827,2.3836,2.3839,2.3849,2.3856,2.3867,2.3876,2.3885,2.3898,2.3909,2.3917,2.3928,2.3934,2.3935,2.3937,2.3936,2.3937,2.3927,2.3924,2.3936,2.3936,2.3936,2.3936,2.3936,2.3936,2.3802,2.3814,2.382,2.3837,2.3844,2.3856,2.3862,2.387,2.3878,2.3893,2.3903,2.3908,2.3918,2.393,2.394,2.3942,2.3946,2.3947,2.3949,2.3939,2.3938,2.3937,2.3934,2.3948,2.3948,2.3959,2.3959,2.3959]},{"header":{"parameterUnit":"m.s-1","parameterCategory":1,"la1":30.2991,"la2":30.254,"lo1":-89.0895,"lo2":-89.0444,"dy":0.0017,"dx":0.0017,"nx":28,"ny":28,"refTime":"2024-03-18T21:00:00:Z","depth":0,"parameterNumber":3,"parameterNumberName":"V-component_of_WINDS"},"data":[0,0,0,0,0,0,0,0,0,0,0,0,0,0,0,0,0,0,0,0,0,0,0,0,0,0,0,0,0,0,0,0,0,0,0,0,0,0,0,0,0,0,0,0,0,0,0,0,0,0,0,0,0,0,0,0,0,0,-6.5125,-6.5125,0,-6.5203,-6.5204,-6.5205,-6.5185,-6.5183,-6.5181,-6.518,-6.5255,-6.5258,-6.5261,0,0,0,0,0,0,0,0,0,0,0,0,0,-6.4955,-6.4958,-6.5125,-6.5126,-6.5127,-6.5203,-6.5204,-6.5205,-6.5185,-6.5183,-6.5181,-6.5179,-6.5254,-6.5258,-6.5262,0,0,0,0,0,0,0,0,0,0,0,0,0,-6.503,-6.4959,-6.5124,-6.5126,-6.5127,-6.5203,-6.5204,-6.5205,-6.5185,-6.5183,-6.5181,-6.5178,-6.5252,-6.5257,-6.5262,-6.534,0,0,-6.5278,-6.528,0,0,0,0,0,0,0,0,-6.5026,-6.5036,-6.5125,-6.5126,-6.5127,-6.5182,-6.5171,-6.525,-6.5186,-6.5163,-6.518,-6.5177,-6.5232,-6.5239,-6.5258,-6.5343,-6.5346,-6.5278,-6.5282,-6.5284,-6.5285,0,0,0,0,0,0,0,-6.5021,-6.5033,-6.5155,-6.5126,-6.5127,-6.5122,-6.513,-6.5186,-6.5209,-6.5165,-6.5163,-6.5173,-6.5232,-6.5253,-6.526,-6.5348,-6.5278,-6.5283,-6.5286,-6.5288,-6.5503,-6.5505,0,0,0,0,0,0,-6.5015,-6.5029,-6.5153,-6.5158,-6.507,-6.5127,-6.5136,-6.5166,-6.5208,-6.5213,-6.5175,-6.5172,-6.5246,-6.5254,-6.5262,-6.5358,-6.5284,-6.5288,-6.5291,-6.55,-6.5504,-6.5506,0,0,0,0,0,0,-6.5011,-6.5026,-6.515,-6.5093,-6.5108,-6.5132,-6.5167,-6.5169,-6.519,-6.5217,-6.522,-6.5193,-6.5244,-6.5255,-6.5322,-6.536,-6.5291,-6.5295,-6.5497,-6.5501,-6.5505,-6.5548,0,0,0,0,0,0,-6.5007,-6.5025,-6.5055,-6.5094,-6.5111,-6.5209,-6.5169,-6.5172,-6.52,-6.5197,-6.5234,-6.5238,-6.5243,-6.5314,-6.5327,-6.5366,-6.5299,-6.5494,-6.5499,-6.5504,-6.5543,-6.5553,-6.5561,0,0,0,0,0,-6.5001,-6.5062,-6.5057,-6.5072,-6.515,-6.5211,-6.5221,-6.5227,-6.5203,-6.5233,-6.5251,-6.5237,-6.5354,-6.5321,-6.5335,-6.5376,-6.5491,-6.5498,-6.5503,-6.5539,-6.5551,-6.5561,0,0,0,0,0,0,-6.5025,-6.5067,-6.5062,-6.5138,-6.5172,-6.5208,-6.5246,-6.5239,-6.5279,-6.5274,-6.5278,-6.5287,-6.5356,-6.5372,-6.5335,-6.5455,-6.5419,-6.5428,-6.5441,-6.5453,-6.5462,-6.5456,-6.5304,0,0,0,0,0,-6.504,-6.5087,-6.5121,-6.5185,-6.5203,-6.5222,-6.5248,-6.5251,-6.5285,-6.5298,-6.532,-6.5352,-6.5397,-6.5426,-6.5467,-6.5546,-6.5554,-6.5581,-6.559,-6.5597,-6.5605,-6.5649,-6.5662,-6.5526,-6.5526,-6.5526,0,0,-6.5069,-6.5098,-6.5128,-6.5191,-6.5217,-6.5266,-6.5233,-6.5285,-6.5321,-6.5305,-6.5371,-6.5388,-6.5425,-6.5498,-6.5531,-6.5514,-6.5645,-6.5605,-6.561,-6.5614,-6.5657,-6.567,-6.5681,-6.553,-6.5529,-6.5529,0,0,-6.5149,-6.5176,-6.5233,-6.5261,-6.5303,-6.5315,-6.5329,-6.5368,-6.5379,-6.5446,-6.5436,-6.5478,-6.5553,-6.5581,-6.5604,-6.5698,-6.5687,-6.5711,-6.5758,-6.5802,-6.5812,-6.5822,-6.5857,-6.5869,-6.5719,-6.5719,-6.5719,0,-6.518,-6.5255,-6.5263,-6.5318,-6.5346,-6.5337,-6.5396,-6.5421,-6.5473,-6.5493,-6.5473,-6.5571,-6.5594,-6.5675,-6.5698,-6.5717,-6.5734,-6.5707,-6.5811,-6.582,-6.5829,-6.5862,-6.5875,-6.5722,-6.5722,-6.5721,-6.5721,0,-6.5292,-6.5344,-6.5385,-6.5439,-6.5472,-6.5528,-6.5545,-6.5577,-6.5578,-6.5593,-6.5661,-6.5689,-6.5738,-6.5758,-6.5757,-6.5839,-6.5828,-6.5809,-6.5773,-6.5845,-6.5876,-6.5889,-6.5726,-6.5725,-6.5724,-6.5723,0,0,-6.5387,-6.5448,-6.5463,-6.5488,-6.5535,-6.5575,-6.5631,-6.5681,-6.5709,-6.5746,-6.5793,-6.5859,-6.5844,-6.5871,-6.5874,-6.5912,-6.5987,-6.5889,-6.589,-6.5907,-6.6081,-6.6095,-6.6109,-6.598,-6.5982,-6.5984,-6.6078,0,-6.5471,-6.5573,-6.5583,-6.5673,-6.5722,-6.5716,-6.5765,-6.5798,-6.5814,-6.5857,-6.5874,-6.5922,-6.5897,-6.5913,-6.5951,-6.597,-6.6021,-6.5963,-6.6024,-6.6026,-6.6015,-6.6125,-6.614,-6.6226,-6.609,-6.6092,-6.6094,0,-6.5583,-6.5627,-6.5723,-6.5766,-6.5786,-6.583,-6.5879,-6.592,-6.5958,-6.5967,-6.6,-6.5998,-6.6056,-6.6018,-6.6098,-6.6058,-6.6084,-6.6097,-6.61,-6.6106,-6.6064,-6.6135,-6.6254,-6.6267,-6.6113,-6.6111,-6.611,0,-6.5645,-6.5727,-6.5796,-6.5818,-6.5869,-6.59,-6.5923,-6.5959,-6.599,-6.6031,-6.6051,-6.6098,-6.6124,-6.6161,-6.6172,-6.6143,-6.6252,-6.6215,-6.6261,-6.6261,-6.6284,-6.6282,-6.6409,-6.6299,-6.6299,-6.6299,-6.6299,0,-6.5738,-6.5797,-6.5825,-6.5867,-6.5933,-6.5945,-6.601,-6.6031,-6.6064,-6.6109,-6.6106,-6.6148,-6.6161,-6.6206,-6.6215,-6.628,-6.6291,-6.63,-6.6302,-6.6301,-6.63,-6.6318,-6.6312,-6.6302,-6.6301,-6.6301,-6.63,0,-6.5818,-6.5838,-6.5913,-6.5957,-6.5969,-6.6017,-6.6053,-6.6094,-6.6111,-6.6169,-6.6183,-6.6208,-6.6261,-6.6277,-6.6339,-6.6345,-6.6423,-6.6418,-6.6411,-6.6411,-6.6457,-6.6453,-6.66,-6.6621,-6.6496,-6.6498,-6.6499,0,-6.5876,-6.5922,-6.5972,-6.6004,-6.6029,-6.6079,-6.6112,-6.6126,-6.6159,-6.6208,-6.6243,-6.6296,-6.6339,-6.6424,-6.6447,-6.6496,-6.6493,-6.6542,-6.65,-6.6499,-6.6495,-6.6493,-6.6498,-6.6549,-6.6551,-6.6552,-6.6553,0,-6.5979,-6.5988,-6.6036,-6.6088,-6.6128,-6.6169,-6.6208,-6.6234,-6.6254,-6.6292,-6.6348,-6.6381,-6.6448,-6.65,-6.655,-6.6572,-6.6566,-6.6566,-6.6579,-6.6579,-6.6573,-6.6578,-6.6433,-6.6562,-6.6561,-6.656,-6.656,-6.656,-6.605,-6.6092,-6.6135,-6.6189,-6.6221,-6.6259,-6.6301,-6.6324,-6.6371,-6.6428,-6.6433,-6.6494,-6.6533,-6.66,-6.6624,-6.6671,-6.6657,-6.6676,-6.6681,-6.6685,-6.669,-6.6566,-6.668,-6.668,-6.668,-6.6679,-6.6679,0,-6.6154,-6.6182,-6.6232,-6.6289,-6.6332,-6.6326,-6.637,-6.6406,-6.646,-6.6498,-6.6542,-6.6607,-6.6659,-6.6688,-6.674,-6.6772,-6.6771,-6.6785,-6.6783,-6.6789,-6.6699,-6.6683,-6.6786,-6.6786,-6.6786,-6.6786,-6.6786,-6.6786,-6.6212,-6.6284,-6.6298,-6.6385,-6.6412,-6.6474,-6.65,-6.6536,-6.6566,-6.664,-6.6685,-6.6704,-6.6739,-6.6794,-6.6841,-6.6848,-6.6868,-6.6884,-6.689,-6.6805,-6.6795,-6.6784,-6.6769,-6.6888,-6.6888,-6.6975,-6.6976,-6.6977]}]]